This is the latest recevied weather packets stored in our database for station/object VK4TOM-13. If no packets are shown the sender has not sent any weather packets the latest 10 day(s).
| Time | Temp. | Humidity | Pressure | Rain* | Wind** | Luminosity | Snow |
|---|---|---|---|---|---|---|---|
| 1788061392 | 26.11° C | 70% | 1024.5 hPa | 0 mm | - | - | - |
| 1788060791 | 26.11° C | 70% | 1024.6 hPa | 0 mm | - | - | - |
| 1788060190 | 27.22° C | 70% | 1024.7 hPa | 0 mm | - | - | - |
| 1788060010 | 27.22° C | 70% | 1024.5 hPa | 0 mm | - | - | - |
| 1788059833 | 27.22° C | 70% | 1024.6 hPa | 0 mm | - | - | - |
| 1788058884 | 26.11° C | 70% | 1024.6 hPa | 0 mm | - | - | - |
| 1788058296 | 26.11° C | 70% | 1024.8 hPa | 0 mm | - | - | - |
| 1788057932 | 26.67° C | 70% | 1024.8 hPa | 0 mm | - | - | - |
| 1788057552 | 26.67° C | 70% | 1024.9 hPa | 0 mm | - | - | - |
| 1788056951 | 26.11° C | 70% | 1025.2 hPa | 0 mm | - | - | - |
| 1788056063 | 25.56° C | 70% | 1025.4 hPa | 0 mm | - | - | - |
| 1788055570 | 26.11° C | 70% | 1025.5 hPa | 0 mm | - | - | - |
| 1788054969 | 26.11° C | 70% | 1025.6 hPa | 0 mm | - | - | - |
| 1788054367 | 25.56° C | 70% | 1025.8 hPa | 0 mm | - | - | - |
| 1788053944 | 25.56° C | 70% | 1025.8 hPa | 0 mm | - | - | - |
| 1788053343 | 25.56° C | 70% | 1025.8 hPa | 0 mm | - | - | - |
| 1788052141 | 24.44° C | 70% | 1026.3 hPa | 0 mm | - | - | - |
| 1788050939 | 24.44° C | 70% | 1026.6 hPa | 0 mm | - | - | - |
| 1788050338 | 25° C | 70% | 1026.6 hPa | 0 mm | - | - | - |
| 1788049556 | 24.44° C | 70% | 1026.7 hPa | 0 mm | - | - | - |
| 1788045351 | 22.22° C | 70% | 1026.8 hPa | 0 mm | - | - | - |
| 1788044750 | 21.67° C | 70% | 1027 hPa | 0 mm | - | - | - |
| 1788044149 | 21.11° C | 70% | 1027 hPa | 0 mm | - | - | - |
| 1788043347 | 20.56° C | 70% | 1027 hPa | 0 mm | - | - | - |
| 1788042996 | 20.56° C | 70% | 1026.9 hPa | 0 mm | - | - | - |
* Rain since midnight (hover to see other rain measurements)
** Current wind speed in m/s (hover to see current wind gust speed)